{"data":{"norad_id":39763,"intl_designator":"2014-028C","name":"COSMOS 2498 (RODNIK-S *)","alt_names":[],"object_type":"PAYLOAD","status":"ACTIVE","operator":null,"country":"CIS","launch_date":"2014-05-23","launch_site_code":"PLMSC","launch_vehicle":null,"mission":null,"orbit_class":"UNKNOWN","rcs_meters":1.7561,"size_class":null,"mass_kg":null,"dimensions":null,"purposes":[],"wikipedia_slug":null,"has_3d_model":false,"image_url":null,"decayed_at":null,"tle_current":{"epoch":"2026-09-20T04:42:53.711136Z","epoch_age_seconds":63505,"freshness":"FRESH","line1":"1 39763U 14028C   26263.19645499  .00000075  00000+0  47022-3 0  9998","line2":"2 39763  82.4458  49.3710 0020756 225.4330 134.5055 12.42983373559356","mean_motion":12.42983373,"eccentricity":0.0020756,"inclination_deg":82.4458,"raan_deg":49.371,"arg_perigee_deg":225.433,"mean_anomaly_deg":134.5055,"bstar":0.00047022,"rev_number":55935,"period_min":115.85030268945,"perigee_km":1477.6422307103,"apogee_km":1510.320969443,"semimajor_km":7872.1186000766,"source":"CELESTRAK","updated_at":"2026-09-20T09:00:13.970971Z"}}}